[[{"header":{"parameterUnit":"m.s-1","parameterCategory":1,"la1":30.2991,"la2":30.254,"lo1":-89.0895,"lo2":-89.0444,"dy":0.0017,"dx":0.0017,"nx":28,"ny":28,"refTime":"2024-12-22T09:00:00:Z","depth":0,"parameterNumber":2,"parameterNumberName":"U-component_of_WINDS"},"data":[0,0,0,0,0,0,0,0,0,0,0,0,0,0,0,0,0,0,0,0,0,0,0,0,0,0,0,0,0,0,0,0,0,0,0,0,0,0,0,0,0,0,0,0,0,0,0,0,0,0,0,0,0,0,0,0,0,0,-3.0232,-3.0232,0,-3.0228,-3.0228,-3.0228,-3.0124,-3.0122,-3.0119,-3.0116,-3.0115,-3.0118,-3.012,0,0,0,0,0,0,0,0,0,0,0,0,0,-3.0153,-3.0155,-3.0232,-3.0232,-3.0232,-3.0228,-3.0228,-3.0228,-3.0125,-3.0122,-3.0118,-3.0115,-3.0115,-3.0118,-3.0121,0,0,0,0,0,0,0,0,0,0,0,0,0,-3.0172,-3.0156,-3.0232,-3.018,-3.0175,-3.0228,-3.0228,-3.0228,-3.0126,-3.0121,-3.0117,-3.0114,-3.0114,-3.0117,-3.0121,-3.0224,0,0,-3.0132,-3.0134,0,0,0,0,0,0,0,0,-3.0171,-3.0175,-3.0188,-3.0183,-3.0178,-3.0172,-3.02,-3.0227,-3.0127,-3.0144,-3.0116,-3.0112,-3.0138,-3.0139,-3.0148,-3.0224,-3.0224,-3.0133,-3.0135,-3.0136,-3.0137,0,0,0,0,0,0,0,-3.017,-3.0175,-3.023,-3.0188,-3.0182,-3.0158,-3.0156,-3.0205,-3.0164,-3.0143,-3.0135,-3.0136,-3.0135,-3.0144,-3.0147,-3.0224,-3.0132,-3.0136,-3.0138,-3.014,-3.0389,-3.0393,0,0,0,0,0,0,-3.0176,-3.0174,-3.0231,-3.023,-3.0165,-3.0162,-3.016,-3.0179,-3.0163,-3.0157,-3.0139,-3.0131,-3.014,-3.0143,-3.0146,-3.0269,-3.0136,-3.014,-3.0142,-3.0385,-3.039,-3.0395,0,0,0,0,0,0,-3.0174,-3.0182,-3.0231,-3.02,-3.0205,-3.0168,-3.0189,-3.0181,-3.019,-3.0161,-3.0153,-3.0157,-3.0137,-3.0141,-3.0206,-3.0268,-3.0142,-3.0145,-3.038,-3.0386,-3.0393,-3.0514,0,0,0,0,0,0,-3.0172,-3.0182,-3.022,-3.0202,-3.0207,-3.029,-3.0193,-3.0183,-3.0196,-3.0186,-3.0175,-3.0169,-3.0134,-3.0201,-3.021,-3.027,-3.0148,-3.0374,-3.0383,-3.039,-3.0505,-3.0524,-3.0541,0,0,0,0,0,-3.017,-3.0254,-3.0222,-3.023,-3.0253,-3.0294,-3.0297,-3.0254,-3.0202,-3.0241,-3.0222,-3.0169,-3.0259,-3.0209,-3.0218,-3.028,-3.037,-3.038,-3.039,-3.0497,-3.0521,-3.0541,0,0,0,0,0,0,-3.0281,-3.0251,-3.0215,-3.0296,-3.0298,-3.0276,-3.0324,-3.028,-3.0298,-3.0287,-3.0234,-3.0232,-3.0307,-3.0299,-3.0244,-3.0381,-3.0305,-3.0318,-3.0384,-3.0406,-3.0424,-3.0425,-3.0151,0,0,0,0,0,-3.0314,-3.0348,-3.0321,-3.0395,-3.0398,-3.0361,-3.0377,-3.0344,-3.0344,-3.0345,-3.0331,-3.0334,-3.0363,-3.0384,-3.0409,-3.0502,-3.05,-3.055,-3.0568,-3.0583,-3.0595,-3.0647,-3.067,-3.0427,-3.0427,-3.0427,0,0,-3.0384,-3.0372,-3.0397,-3.0417,-3.0415,-3.0453,-3.0362,-3.0406,-3.0435,-3.0352,-3.0413,-3.0403,-3.0404,-3.0485,-3.0519,-3.0481,-3.0661,-3.0596,-3.0608,-3.0612,-3.066,-3.0683,-3.0704,-3.0434,-3.0433,-3.0432,0,0,-3.0533,-3.0526,-3.0588,-3.0588,-3.0586,-3.0561,-3.0576,-3.0561,-3.0551,-3.0612,-3.0551,-3.0584,-3.0635,-3.0639,-3.0647,-3.0799,-3.0752,-3.0808,-3.0904,-3.0956,-3.0975,-3.0992,-3.1049,-3.107,-3.0819,-3.082,-3.082,0,-3.0621,-3.0675,-3.0626,-3.0674,-3.0686,-3.0612,-3.0676,-3.0678,-3.0685,-3.0695,-3.0651,-3.0715,-3.071,-3.0792,-3.0829,-3.0837,-3.0855,-3.081,-3.0976,-3.0992,-3.1007,-3.1061,-3.1082,-3.0827,-3.0826,-3.0825,-3.0825,0,-3.0785,-3.0823,-3.0874,-3.0883,-3.0899,-3.0956,-3.0916,-3.094,-3.0905,-3.0886,-3.095,-3.0941,-3.0964,-3.098,-3.0947,-3.1059,-3.1036,-3.0985,-3.0908,-3.1038,-3.1088,-3.1108,-3.0837,-3.0834,-3.0832,-3.0831,0,0,-3.1003,-3.0984,-3.1004,-3.1008,-3.1001,-3.1031,-3.1084,-3.1106,-3.1129,-3.1136,-3.1182,-3.1226,-3.118,-3.119,-3.1156,-3.1201,-3.1326,-3.1144,-3.1144,-3.1181,-3.1452,-3.1493,-3.1518,-3.1294,-3.1297,-3.13,-3.1453,0,-3.1149,-3.1239,-3.1197,-3.1293,-3.133,-3.126,-3.1307,-3.1309,-3.1292,-3.1322,-3.1303,-3.1338,-3.1271,-3.1278,-3.1319,-3.1302,-3.138,-3.129,-3.1338,-3.1341,-3.1344,-3.1543,-3.1586,-3.1731,-3.1472,-3.1476,-3.1478,0,-3.1331,-3.1347,-3.1446,-3.1434,-3.1448,-3.1491,-3.151,-3.1538,-3.1539,-3.1524,-3.1536,-3.1493,-3.1546,-3.1468,-3.1543,-3.1483,-3.15,-3.1495,-3.15,-3.1505,-3.1419,-3.1558,-3.1776,-3.18,-3.1508,-3.1505,-3.1503,0,-3.1485,-3.153,-3.1596,-3.1601,-3.1589,-3.1621,-3.1617,-3.1614,-3.1631,-3.1647,-3.1658,-3.168,-3.1694,-3.1713,-3.1678,-3.1623,-3.1759,-3.1677,-3.175,-3.1752,-3.1784,-3.1783,-3.2012,-3.179,-3.179,-3.1789,-3.1789,0,-3.1654,-3.1719,-3.1666,-3.1707,-3.1778,-3.1729,-3.1801,-3.1789,-3.1788,-3.1827,-3.1767,-3.1805,-3.1755,-3.1789,-3.1761,-3.183,-3.1835,-3.1826,-3.1819,-3.1833,-3.1835,-3.1846,-3.1837,-3.1795,-3.1794,-3.1793,-3.1792,0,-3.1839,-3.1806,-3.1874,-3.1856,-3.1853,-3.1907,-3.1892,-3.1931,-3.1909,-3.196,-3.1969,-3.1937,-3.1974,-3.194,-3.1974,-3.1956,-3.2048,-3.2025,-3.2048,-3.2043,-3.212,-3.2114,-3.2367,-3.2399,-3.2153,-3.2155,-3.2157,0,-3.1951,-3.1999,-3.1987,-3.2008,-3.2009,-3.2044,-3.2061,-3.2015,-3.2036,-3.2042,-3.208,-3.2112,-3.2135,-3.2198,-3.2179,-3.2206,-3.2184,-3.2271,-3.2188,-3.2203,-3.219,-3.2189,-3.2195,-3.2289,-3.2292,-3.2294,-3.2296,0,-3.2154,-3.2135,-3.2162,-3.2184,-3.2206,-3.2221,-3.2231,-3.2252,-3.2205,-3.2232,-3.2269,-3.2287,-3.2323,-3.2357,-3.2378,-3.2375,-3.233,-3.2322,-3.2341,-3.2358,-3.2371,-3.2369,-3.2098,-3.2317,-3.2315,-3.2313,-3.2312,-3.2311,-3.2308,-3.2348,-3.2347,-3.2379,-3.2382,-3.2394,-3.243,-3.2413,-3.2443,-3.2469,-3.244,-3.2486,-3.2488,-3.2512,-3.2515,-3.2552,-3.2516,-3.2543,-3.255,-3.2558,-3.2571,-3.2363,-3.2555,-3.2554,-3.2554,-3.2553,-3.2553,0,-3.2511,-3.2506,-3.2536,-3.2553,-3.258,-3.2532,-3.2541,-3.2567,-3.2608,-3.2613,-3.2638,-3.2682,-3.2714,-3.2698,-3.2726,-3.2759,-3.2739,-3.2769,-3.2768,-3.2769,-3.26,-3.2582,-3.2785,-3.2785,-3.2785,-3.2785,-3.2785,-3.2785,-3.262,-3.2687,-3.2669,-3.2738,-3.2733,-3.2777,-3.2787,-3.2799,-3.2803,-3.2855,-3.2881,-3.287,-3.2867,-3.2895,-3.2924,-3.2918,-3.2934,-3.2972,-3.2959,-3.2803,-3.278,-3.2758,-3.2742,-3.2974,-3.2975,-3.3125,-3.3127,-3.3128]},{"header":{"parameterUnit":"m.s-1","parameterCategory":1,"la1":30.2991,"la2":30.254,"lo1":-89.0895,"lo2":-89.0444,"dy":0.0017,"dx":0.0017,"nx":28,"ny":28,"refTime":"2024-12-22T09:00:00:Z","depth":0,"parameterNumber":3,"parameterNumberName":"V-component_of_WINDS"},"data":[0,0,0,0,0,0,0,0,0,0,0,0,0,0,0,0,0,0,0,0,0,0,0,0,0,0,0,0,0,0,0,0,0,0,0,0,0,0,0,0,0,0,0,0,0,0,0,0,0,0,0,0,0,0,0,0,0,0,-0.7507,-0.7507,0,-0.7532,-0.7532,-0.7532,-0.747,-0.7468,-0.7467,-0.7465,-0.7494,-0.7496,-0.7499,0,0,0,0,0,0,0,0,0,0,0,0,0,-0.7407,-0.7409,-0.7507,-0.7507,-0.7507,-0.7532,-0.7532,-0.7533,-0.7471,-0.7468,-0.7466,-0.7464,-0.7493,-0.7496,-0.7499,0,0,0,0,0,0,0,0,0,0,0,0,0,-0.7443,-0.741,-0.7507,-0.7479,-0.7477,-0.7532,-0.7532,-0.7533,-0.7471,-0.7468,-0.7465,-0.7463,-0.7492,-0.7495,-0.7499,-0.7582,0,0,-0.7511,-0.7513,0,0,0,0,0,0,0,0,-0.7441,-0.7447,-0.7483,-0.7481,-0.7479,-0.7495,-0.7508,-0.7549,-0.7472,-0.7474,-0.7465,-0.7461,-0.7497,-0.75,-0.7511,-0.7584,-0.7585,-0.7512,-0.7514,-0.7516,-0.7517,0,0,0,0,0,0,0,-0.7439,-0.7445,-0.7517,-0.7484,-0.7481,-0.7467,-0.7468,-0.7515,-0.7502,-0.7473,-0.7469,-0.7473,-0.7495,-0.7508,-0.7511,-0.7585,-0.7511,-0.7515,-0.7517,-0.7519,-0.7727,-0.773,0,0,0,0,0,0,-0.7439,-0.7444,-0.7516,-0.7517,-0.7452,-0.7471,-0.7473,-0.7493,-0.7501,-0.7499,-0.7475,-0.747,-0.7502,-0.7507,-0.7512,-0.761,-0.7516,-0.7519,-0.7521,-0.7724,-0.7728,-0.7731,0,0,0,0,0,0,-0.7438,-0.7446,-0.7515,-0.7479,-0.7487,-0.7476,-0.7499,-0.7495,-0.7507,-0.7502,-0.7499,-0.749,-0.75,-0.7507,-0.7565,-0.761,-0.7521,-0.7525,-0.772,-0.7725,-0.7729,-0.7806,0,0,0,0,0,0,-0.7435,-0.7446,-0.7477,-0.7481,-0.7489,-0.7567,-0.7501,-0.7498,-0.7514,-0.7507,-0.7516,-0.7514,-0.7498,-0.756,-0.7569,-0.7614,-0.7528,-0.7716,-0.7722,-0.7728,-0.78,-0.7813,-0.7825,0,0,0,0,0,-0.7432,-0.7499,-0.7479,-0.7488,-0.7528,-0.757,-0.7575,-0.7554,-0.7518,-0.7549,-0.7546,-0.7514,-0.7603,-0.7566,-0.7576,-0.7623,-0.7713,-0.772,-0.7727,-0.7794,-0.7811,-0.7824,0,0,0,0,0,0,-0.7502,-0.7499,-0.7477,-0.7547,-0.7559,-0.7559,-0.7598,-0.7572,-0.7596,-0.7588,-0.7562,-0.7565,-0.7628,-0.7631,-0.759,-0.7703,-0.7652,-0.7662,-0.77,-0.7715,-0.7727,-0.7726,-0.7531,0,0,0,0,0,-0.7526,-0.756,-0.7555,-0.7617,-0.7624,-0.761,-0.7628,-0.7611,-0.7623,-0.7628,-0.7628,-0.7642,-0.7673,-0.7694,-0.7722,-0.7799,-0.7801,-0.7836,-0.7849,-0.7859,-0.7868,-0.7909,-0.7925,-0.7755,-0.7755,-0.7754,0,0,-0.7575,-0.7577,-0.7601,-0.7631,-0.7639,-0.7675,-0.7615,-0.7656,-0.7683,-0.7634,-0.7689,-0.769,-0.7703,-0.7772,-0.7802,-0.7776,-0.7915,-0.7868,-0.7876,-0.788,-0.7918,-0.7935,-0.7949,-0.776,-0.7759,-0.7758,0,0,-0.7684,-0.7689,-0.7741,-0.7749,-0.776,-0.7751,-0.7763,-0.7767,-0.7765,-0.782,-0.7784,-0.7816,-0.787,-0.788,-0.7893,-0.8004,-0.7977,-0.8014,-0.808,-0.812,-0.8134,-0.8146,-0.8186,-0.8201,-0.8023,-0.8023,-0.8023,0,-0.7745,-0.7797,-0.7772,-0.7815,-0.7829,-0.7785,-0.7839,-0.7848,-0.7869,-0.788,-0.785,-0.7916,-0.7922,-0.7992,-0.8019,-0.8031,-0.8045,-0.8014,-0.8134,-0.8145,-0.8156,-0.8194,-0.8209,-0.8028,-0.8027,-0.8027,-0.8026,0,-0.7871,-0.7908,-0.7948,-0.7968,-0.7987,-0.8035,-0.8018,-0.804,-0.8021,-0.8015,-0.807,-0.8076,-0.8104,-0.8119,-0.8101,-0.8187,-0.817,-0.8138,-0.8086,-0.8177,-0.8213,-0.8227,-0.8034,-0.8033,-0.8031,-0.803,0,0,-0.8026,-0.803,-0.8046,-0.8054,-0.8062,-0.8091,-0.8137,-0.8163,-0.8183,-0.8198,-0.8237,-0.8282,-0.8252,-0.8266,-0.8249,-0.8285,-0.8373,-0.8247,-0.8247,-0.8271,-0.8468,-0.8493,-0.851,-0.8354,-0.8356,-0.8358,-0.8467,0,-0.8134,-0.8212,-0.819,-0.8268,-0.8302,-0.826,-0.83,-0.831,-0.8305,-0.8333,-0.8328,-0.8361,-0.8318,-0.8326,-0.8359,-0.8355,-0.8412,-0.8347,-0.839,-0.8392,-0.8389,-0.8529,-0.8556,-0.8658,-0.8481,-0.8483,-0.8485,0,-0.8271,-0.829,-0.8371,-0.8373,-0.8387,-0.8423,-0.8445,-0.8473,-0.8483,-0.8477,-0.8492,-0.8468,-0.8513,-0.846,-0.8523,-0.8479,-0.8495,-0.8496,-0.8499,-0.8504,-0.8445,-0.8538,-0.869,-0.8706,-0.8506,-0.8504,-0.8503,0,-0.8377,-0.8423,-0.8477,-0.8486,-0.849,-0.8516,-0.8519,-0.8526,-0.8543,-0.8563,-0.8574,-0.8599,-0.8613,-0.8633,-0.8617,-0.8579,-0.8682,-0.8628,-0.8679,-0.868,-0.8704,-0.8703,-0.8862,-0.8713,-0.8713,-0.8713,-0.8712,0,-0.85,-0.8552,-0.8525,-0.8559,-0.8615,-0.859,-0.8647,-0.8645,-0.8652,-0.8685,-0.865,-0.8682,-0.8657,-0.8687,-0.8674,-0.8728,-0.8735,-0.8732,-0.8728,-0.8735,-0.8736,-0.8747,-0.874,-0.8717,-0.8716,-0.8715,-0.8714,0,-0.8628,-0.8613,-0.8669,-0.8668,-0.8669,-0.8711,-0.871,-0.8741,-0.8732,-0.8775,-0.8783,-0.8771,-0.8804,-0.8789,-0.8824,-0.8815,-0.8886,-0.8872,-0.8882,-0.8879,-0.8932,-0.8927,-0.9104,-0.9126,-0.8962,-0.8964,-0.8965,0,-0.8709,-0.8747,-0.8749,-0.8768,-0.8773,-0.8805,-0.8822,-0.8798,-0.8817,-0.8831,-0.8861,-0.8891,-0.8914,-0.8969,-0.8964,-0.8991,-0.8978,-0.9038,-0.8982,-0.8988,-0.898,-0.8978,-0.8982,-0.905,-0.9052,-0.9053,-0.9054,0,-0.8853,-0.8843,-0.8868,-0.8891,-0.8911,-0.8928,-0.8942,-0.896,-0.8936,-0.896,-0.8993,-0.901,-0.9045,-0.9076,-0.9099,-0.9103,-0.9076,-0.9072,-0.9085,-0.9094,-0.9099,-0.9098,-0.8914,-0.9068,-0.9067,-0.9066,-0.9065,-0.9065,-0.896,-0.8992,-0.8999,-0.9028,-0.9035,-0.9049,-0.9078,-0.9073,-0.91,-0.9126,-0.911,-0.9149,-0.9158,-0.9186,-0.9193,-0.9224,-0.92,-0.922,-0.9225,-0.9231,-0.9238,-0.9093,-0.9228,-0.9228,-0.9227,-0.9227,-0.9227,0,-0.9103,-0.9105,-0.9132,-0.9152,-0.9175,-0.9144,-0.9158,-0.918,-0.9214,-0.9224,-0.9247,-0.9285,-0.9314,-0.9311,-0.9337,-0.9363,-0.9351,-0.9371,-0.9369,-0.9371,-0.9257,-0.9243,-0.938,-0.938,-0.938,-0.938,-0.938,-0.938,-0.918,-0.9233,-0.9224,-0.928,-0.9281,-0.9318,-0.9329,-0.9341,-0.9349,-0.9393,-0.9417,-0.9413,-0.9418,-0.9445,-0.947,-0.9468,-0.9481,-0.9506,-0.9499,-0.9394,-0.9379,-0.9364,-0.9351,-0.9508,-0.9508,-0.961,-0.9611,-0.9612]}]]